Flag for Germany

Past Weather in Aurich, Lower Saxony, Germany — Yesterday and Last 2 Weeks

Now
72 °F

Partly sunny.


Feels Like: 75 °F
Forecast: 79 / 64 °F
Wind: 7 mph from Northwest

Location: Wittmundhaven
Current Time: Aug 14, 2020 at 11:28:23 am
Latest Report: Aug 14, 2020 at 10:20 am
Visibility: N/A
Pressure29.89 "Hg
Humidity: 69%
Dew Point: 61 °F
Location of AurichLocation

Past Weather in Aurich — Graph

°F

Aurich Temperature Yesterday

Maximum temperature yesterday: 86 °F (at 3:20 pm)
Minimum temperature yesterday: 66 °F (at 5:20 am)
Average temperature yesterday: 77 °F

High & Low Weather Summary for the Past Weeks

 TemperatureHumidityPressure
High90 °F (Aug 8, 1:20 pm)100% (Aug 2, 4:20 am)30.15 "Hg (Aug 2, 4:20 am)
Low48 °F (Aug 4, 4:20 am)24% (Aug 5, 4:20 pm)29.86 "Hg (Aug 1, 9:20 am)
Average70 °F64%30.02 "Hg
* Reported Jul 30 9:20 am — Aug 14 9:20 am, Aurich. Weather by CustomWeather, © 2020

Note: Actual official high and low records may vary slightly from our data, if they occured in-between our weather recording intervals... More about our weather records

Aurich Weather History for the Previous 24 Hours

Scroll right to see more
 ConditionsComfort  
Time TempWeatherWind HumidityBarometerVisibility
9:20 am
Fri, Aug 14
72 °FPartly sunny.6 mph69%29.89 "HgN/A
8:20 am70 °FBroken clouds.2 mph69%29.89 "HgN/A
7:20 am68 °FBroken clouds.2 mph73%29.89 "HgN/A
6:20 am68 °FPartly sunny.5 mph73%29.86 "HgN/A
5:20 am68 °FPartly cloudy.6 mph73%29.86 "HgN/A
4:20 am68 °FPassing clouds.5 mph73%29.86 "HgN/A
3:20 am70 °FPassing clouds.6 mph69%29.89 "HgN/A
2:20 am72 °FPartly cloudy.5 mph61%29.89 "HgN/A
1:20 am72 °FPartly cloudy.12 mph61%29.89 "HgN/A
12:20 am73 °FPassing clouds.12 mph57%29.89 "HgN/A
11:20 pm
Thu, Aug 13
75 °FPartly cloudy.12 mph57%29.89 "HgN/A
10:20 pm77 °FPartly cloudy.10 mph51%29.89 "HgN/A
9:20 pm79 °FPartly cloudy.12 mph48%29.89 "HgN/A
8:20 pm81 °FPartly sunny.10 mph48%29.89 "HgN/A
7:20 pm82 °FPartly sunny.13 mph42%29.86 "HgN/A
6:20 pm86 °FPartly sunny.15 mph35%29.89 "HgN/A
5:43 pm86 °FPartly sunny.15 mph35%29.89 "HgN/A
5:20 pm86 °FPartly sunny.15 mph35%29.89 "HgN/A
4:20 pm86 °FScattered clouds.14 mph38%29.89 "HgN/A
3:20 pm86 °FPassing clouds.14 mph38%29.92 "HgN/A
2:20 pm84 °FPassing clouds.13 mph40%29.92 "HgN/A
1:20 pm82 °FPassing clouds.14 mph42%29.92 "HgN/A
12:20 pm81 °FPassing clouds.13 mph48%29.92 "HgN/A
11:20 am81 °FPassing clouds.12 mph42%29.92 "HgN/A
Weather by CustomWeather, © 2020

See weather overview